Tracking 22438 objects as of 24-Feb-2021
HD Live streaming from Space Station
objects crossing your sky now

DELTA 1 DEB

Track DELTA 1 DEB now!
10-day predictions


NORAD ID: 42646
Int'l Code: 1975-052MF
Perigee: 1,093.0 km
Apogee: 1,174.5 km
Inclination: 100.0 °
Period: 107.8 minutes
Semi major axis: 7504 km
RCS: Unknown
Launch date: June 12, 1975
Source: United States (US)
Launch site: AIR FORCE WESTERN TEST RANGE (AFWTR)

Note: This is SATELLITE DEBRIS
aabbcc
Your satellite tracking list
Your tracking list is empty




NASA's NSSDC Master Catalog

Two Line Element Set (TLE):
1 42646U 75052MF  21055.52070517  .00000016  00000-0  11612-3 0  9992
2 42646  99.9590 348.8398 0054337 180.8702 179.2337 13.35362046308259
Source of the keplerian elements: AFSPC